Voltar ao catálogo

NOAA 16 DEB

AtivoPO
NORAD 41404·DEBRIS·🇺🇸 United States

Lançado Sep 21, 2000 de Vandenberg Space Force Base

Loading…

Próximas Passagens (próximas 24 horas)

TLE

AtualizadoSource: Space-Track

Época: Sep 14, 2026, 12:29 UTC

1 41404U 00055KH  26257.52047819  .00004370  00000-0  10540-2 0  9997
2 41404  99.0065 140.9767 0023055 254.8218 105.0426 14.53595985551006

Acompanhe NOAA 16 DEB em tempo real com AllMySat

Download on the App Store